When you browse on this site, cookies collect data to enhance your experience and personalize the content and advertising you see.
Visit our Privacy Policy to learn more. By continuing to use the site, you agree to this use of cookies and data.
  • In Deutschland
  • Länderverzeichnis
  • Für 7 Tage
  • Wassertemperatur
  • Satellitenkarten
  • Wetterkarte
  • Widgets
  • user-avatar
    Anmelden

    Stündliche Wetter Baraki Barak

    Heute, 15 Juli, Montag

    Zeit Temperatur Niederschläge Wind Luftdruck Luftfeuchtigkeit
    00:00 +24°C° 0 mm 2 m/S 596 mmHg 21%
    01:00 +23°C° 0 mm 2 m/S 595 mmHg 22%
    02:00 +22°C° 0 mm 1 m/S 594 mmHg 23%
    03:00 +22°C° 0 mm 1 m/S 594 mmHg 24%
    04:00 +21°C° 0 mm 1 m/S 594 mmHg 24%
    05:00 +19°C° 0 mm 2 m/S 594 mmHg 26%
    06:00 +21°C° 0 mm 2 m/S 594 mmHg 23%
    07:00 +23°C° 0 mm 2 m/S 595 mmHg 21%
    08:00 +25°C° 0 mm 3 m/S 596 mmHg 18%
    09:00 +26°C° 0 mm 3 m/S 596 mmHg 17%
    10:00 +28°C° 0 mm 3 m/S 597 mmHg 16%
    11:00 +29°C° 0 mm 4 m/S 597 mmHg 14%
    12:00 +32°C° 0 mm 4 m/S 597 mmHg 13%
    13:00 +33°C° 0 mm 5 m/S 597 mmHg 11%
    14:00 +34°C° 0 mm 5 m/S 598 mmHg 10%
    15:00 +34°C° 0 mm 6 m/S 597 mmHg 10%
    16:00 +34°C° 0 mm 7 m/S 597 mmHg 10%
    17:00 +34°C° 0 mm 5 m/S 597 mmHg 10%
    18:00 +32°C° 0 mm 5 m/S 597 mmHg 13%
    19:00 +30°C° 0 mm 4 m/S 597 mmHg 15%
    20:00 +28°C° 0 mm 3 m/S 596 mmHg 17%
    21:00 +27°C° 0 mm 3 m/S 596 mmHg 18%
    22:00 +26°C° 0 mm 2 m/S 596 mmHg 20%
    23:00 +24°C° 0 mm 2 m/S 596 mmHg 21%

    Morgen, 16 Juli, Dienstag

    Zeit Temperatur Niederschläge Wind Luftdruck Luftfeuchtigkeit
    00:00 +24°C° 0 mm 1 m/S 596 mmHg 22%
    01:00 +23°C° 0 mm 1 m/S 595 mmHg 24%
    02:00 +22°C° 0 mm 1 m/S 595 mmHg 25%
    03:00 +21°C° 0 mm 1 m/S 595 mmHg 25%
    04:00 +20°C° 0 mm 1 m/S 595 mmHg 26%
    05:00 +20°C° 0 mm 1 m/S 594 mmHg 27%
    06:00 +21°C° 0 mm 1 m/S 595 mmHg 24%
    07:00 +23°C° 0 mm 1 m/S 596 mmHg 21%
    08:00 +25°C° 0 mm 1 m/S 597 mmHg 18%
    09:00 +27°C° 0 mm 1 m/S 598 mmHg 16%
    10:00 +28°C° 0 mm 1 m/S 598 mmHg 14%
    11:00 +29°C° 0 mm 1 m/S 598 mmHg 12%
    12:00 +31°C° 0 mm 2 m/S 598 mmHg 11%
    13:00 +32°C° 0 mm 2 m/S 598 mmHg 10%
    14:00 +34°C° 0 mm 2 m/S 598 mmHg 9%
    15:00 +34°C° 0 mm 2 m/S 598 mmHg 9%
    16:00 +34°C° 0 mm 3 m/S 598 mmHg 8%
    17:00 +35°C° 0 mm 3 m/S 598 mmHg 8%
    18:00 +33°C° 0 mm 3 m/S 598 mmHg 11%
    19:00 +31°C° 0 mm 3 m/S 598 mmHg 13%
    20:00 +29°C° 0 mm 3 m/S 597 mmHg 15%
    21:00 +28°C° 0 mm 2 m/S 597 mmHg 20%
    22:00 +26°C° 0 mm 2 m/S 597 mmHg 26%
    23:00 +25°C° 0 mm 1 m/S 597 mmHg 31%

    übermorgen, 17 Juli, Mittwoch

    Zeit Temperatur Niederschläge Wind Luftdruck Luftfeuchtigkeit
    00:00 +24°C° 0 mm 1 m/S 597 mmHg 34%
    01:00 +23°C° 0 mm 1 m/S 597 mmHg 36%
    02:00 +23°C° 0 mm 1 m/S 596 mmHg 39%
    03:00 +20°C° 0 mm 0 m/S 596 mmHg 40%
    04:00 +19°C° 0 mm 0 m/S 596 mmHg 41%
    05:00 +18°C° 0 mm 0 m/S 595 mmHg 42%
    06:00 +20°C° 0 mm 0 m/S 596 mmHg 37%
    07:00 +22°C° 0 mm 0 m/S 597 mmHg 33%
    08:00 +24°C° 0 mm 0 m/S 598 mmHg 28%
    09:00 +27°C° 0 mm 1 m/S 598 mmHg 24%
    10:00 +29°C° 0 mm 1 m/S 599 mmHg 21%
    11:00 +30°C° 0 mm 1 m/S 599 mmHg 17%
    12:00 +32°C° 0 mm 1 m/S 599 mmHg 14%
    13:00 +34°C° 0 mm 2 m/S 599 mmHg 11%
    14:00 +35°C° 0 mm 2 m/S 599 mmHg 8%
    15:00 +36°C° 0 mm 3 m/S 599 mmHg 7%
    16:00 +36°C° 0 mm 3 m/S 599 mmHg 6%
    17:00 +36°C° 0 mm 4 m/S 599 mmHg 5%
    18:00 +35°C° 0 mm 4 m/S 599 mmHg 8%
    19:00 +33°C° 0 mm 4 m/S 598 mmHg 11%
    20:00 +30°C° 0 mm 4 m/S 598 mmHg 14%
    21:00 +28°C° 0 mm 3 m/S 598 mmHg 23%
    22:00 +27°C° 0 mm 2 m/S 598 mmHg 31%
    23:00 +25°C° 0 mm 1 m/S 598 mmHg 40%

    18 Juli, Donnerstag

    Zeit Temperatur Niederschläge Wind Luftdruck Luftfeuchtigkeit
    00:00 +24°C° 0 mm 1 m/S 597 mmHg 42%
    01:00 +24°C° 0 mm 1 m/S 597 mmHg 44%
    02:00 +23°C° 0 mm 1 m/S 596 mmHg 46%
    03:00 +20°C° 0 mm 0 m/S 596 mmHg 46%
    04:00 +19°C° 0 mm 0 m/S 595 mmHg 47%
    05:00 +19°C° 0 mm 0 m/S 595 mmHg 47%
    06:00 +21°C° 0 mm 0 m/S 596 mmHg 41%
    07:00 +22°C° 0 mm 0 m/S 597 mmHg 34%
    08:00 +26°C° 0 mm 1 m/S 598 mmHg 27%
    09:00 +28°C° 0 mm 1 m/S 598 mmHg 22%
    10:00 +30°C° 0 mm 1 m/S 598 mmHg 18%
    11:00 +31°C° 0 mm 1 m/S 599 mmHg 13%
    12:00 +32°C° 0 mm 1 m/S 599 mmHg 11%
    13:00 +34°C° 0 mm 2 m/S 599 mmHg 9%
    14:00 +36°C° 0 mm 2 m/S 599 mmHg 8%
    15:00 +36°C° 0 mm 2 m/S 599 mmHg 8%
    16:00 +36°C° 0 mm 3 m/S 599 mmHg 7%
    17:00 +37°C° 0 mm 3 m/S 599 mmHg 7%
    18:00 +35°C° 0 mm 3 m/S 599 mmHg 9%
    19:00 +33°C° 0 mm 4 m/S 598 mmHg 11%
    20:00 +30°C° 0 mm 4 m/S 598 mmHg 14%
    21:00 +29°C° 0 mm 3 m/S 598 mmHg 21%
    22:00 +27°C° 0 mm 2 m/S 598 mmHg 29%
    23:00 +26°C° 0 mm 1 m/S 598 mmHg 36%

    19 Juli, Freitag

    Zeit Temperatur Niederschläge Wind Luftdruck Luftfeuchtigkeit
    00:00 +25°C° 0 mm 1 m/S 597 mmHg 40%
    01:00 +24°C° 0 mm 1 m/S 597 mmHg 44%
    02:00 +21°C° 0 mm 0 m/S 596 mmHg 49%
    03:00 +21°C° 0 mm 0 m/S 596 mmHg 49%
    04:00 +20°C° 0 mm 0 m/S 596 mmHg 50%
    05:00 +19°C° 0 mm 0 m/S 596 mmHg 51%
    06:00 +21°C° 0 mm 0 m/S 597 mmHg 45%
    07:00 +23°C° 0 mm 0 m/S 598 mmHg 39%
    08:00 +27°C° 0 mm 1 m/S 598 mmHg 32%
    09:00 +28°C° 0 mm 1 m/S 599 mmHg 26%
    10:00 +30°C° 0 mm 1 m/S 600 mmHg 20%
    11:00 +32°C° 0 mm 1 m/S 600 mmHg 14%
    12:00 +34°C° 0 mm 2 m/S 600 mmHg 12%
    13:00 +35°C° 0 mm 2 m/S 600 mmHg 10%
    14:00 +36°C° 0 mm 2 m/S 600 mmHg 8%
    15:00 +37°C° 0 mm 2 m/S 600 mmHg 8%
    16:00 +37°C° 0 mm 2 m/S 600 mmHg 8%
    17:00 +37°C° 0 mm 3 m/S 600 mmHg 7%
    18:00 +35°C° 0 mm 3 m/S 600 mmHg 11%
    19:00 +34°C° 0 mm 3 m/S 599 mmHg 14%
    20:00 +31°C° 0 mm 3 m/S 599 mmHg 18%
    21:00 +29°C° 0 mm 2 m/S 599 mmHg 25%
    22:00 +28°C° 0 mm 2 m/S 599 mmHg 33%
    23:00 +27°C° 0 mm 1 m/S 599 mmHg 40%

    20 Juli, Samstag

    Zeit Temperatur Niederschläge Wind Luftdruck Luftfeuchtigkeit
    00:00 +26°C° 0 mm 1 m/S 598 mmHg 44%
    01:00 +25°C° 0 mm 1 m/S 598 mmHg 48%
    02:00 +24°C° 0 mm 1 m/S 597 mmHg 52%
    03:00 +22°C° 0 mm 0 m/S 597 mmHg 53%
    04:00 +21°C° 0 mm 0 m/S 597 mmHg 54%
    05:00 +20°C° 0 mm 0 m/S 597 mmHg 55%
    06:00 +22°C° 0 mm 0 m/S 597 mmHg 47%
    07:00 +26°C° 0 mm 1 m/S 598 mmHg 40%
    08:00 +28°C° 0 mm 1 m/S 599 mmHg 32%
    09:00 +29°C° 0 mm 1 m/S 600 mmHg 26%
    10:00 +31°C° 0 mm 1 m/S 600 mmHg 19%
    11:00 +34°C° 0 mm 2 m/S 601 mmHg 13%
    12:00 +35°C° 0 mm 2 m/S 601 mmHg 11%
    13:00 +36°C° 0 mm 2 m/S 601 mmHg 9%
    14:00 +37°C° 0 mm 2 m/S 601 mmHg 7%
    15:00 +37°C° 0 mm 3 m/S 601 mmHg 6%
    16:00 +38°C° 0 mm 4 m/S 601 mmHg 6%
    17:00 +38°C° 0 mm 4 m/S 600 mmHg 6%
    18:00 +36°C° 0 mm 4 m/S 600 mmHg 8%
    19:00 +34°C° 0 mm 4 m/S 599 mmHg 11%
    20:00 +32°C° 0 mm 5 m/S 599 mmHg 13%
    21:00 +29°C° 0 mm 3 m/S 599 mmHg 17%
    22:00 +28°C° 0 mm 2 m/S 598 mmHg 20%
    23:00 +26°C° 0 mm 1 m/S 598 mmHg 24%
    Mehr zeigen